Dewpoint
57 57 58 58 58 58 59 59 59 60 60 60 61 61 61 61 61 61 61 61 61 61 61 61 61 61 62 62 61 61 57 42 47 48 42 40 51 63 63 65 62 64 63 45 40 34 33 32 30 32 37 36 38 34 40 40 44 38 29 26 22 27 25 29 25 26 26 23 22 22 21 20 19 20 23 22 22 23 23 27 27 27 27 31 35 38 38 39
57 57 57 57 58 58 58 58 59 59 59 60 60 61 61 61 61 61 61 61 61 61 61 61 61 61 62 62 61 59 53 49 44 43 36 53 66 65 65 65 63 66 55 41 37 34 32 31 32 32 37 34 44 35 39 38 41 35 33 24 21 26 26 32 28 27 19 19 20 22 22 20 20 21 21 20 20 20 20 21 24 25 26 33 35 37 37 38
57 57 57 57 57 57 57 58 58 58 59 59 59 60 60 60 60 60 61 61 61 61 61 61 61 61 61 61 60 59 50 46 41 39 36 60 65 66 66 64 64 63 43 42 41 34 31 30 31 31 37 33 36 34 38 37 39 38 30 28 29 29 27 30 28 27 20 19 19 20 21 19 19 21 24 20 19 20 19 19 21 22 22 26 34 36 36 36
57 57 56 56 57 57 57 57 58 58 58 59 59 59 59 60 60 60 61 61 61 61 61 61 61 61 61 61 61 55 51 32 25 32 43 58 63 64 65 65 65 62 51 47 42 34 32 29 29 29 34 32 33 41 36 38 34 35 30 28 28 29 27 24 25 25 22 20 20 20 22 20 20 20 20 20 18 18 19 20 19 19 20 22 33 35 36 35
57 57 56 56 57 57 57 57 58 58 58 58 58 59 59 59 60 60 60 61 61 61 61 60 60 61 61 61 60 53 38 2 9 39 45 58 65 62 66 66 64 59 52 44 31 30 28 26 29 32 32 26 32 35 36 37 34 34 31 31 29 28 25 24 24 26 22 22 20 22 20 19 21 21 20 20 18 16 16 19 20 20 20 22 32 34 35 35
57 57 57 56 56 56 57 57 57 58 58 58 58 58 58 59 59 59 59 60 60 61 61 60 61 61 61 61 52 50 19 7 25 47 60 62 64 65 66 66 64 55 51 32 32 30 26 29 28 29 27 25 26 25 25 35 34 29 30 29 28 27 24 25 27 25 24 21 20 21 20 20 19 18 20 20 19 18 20 21 20 20 21 20 30 33 34 34
57 57 57 56 56 56 57 57 57 57 57 58 58 58 58 59 59 59 59 60 60 60 61 60 60 61 61 60 53 35 18 12 42 50 59 61 62 65 65 64 61 53 39 29 28 28 31 29 27 30 28 28 25 24 25 28 33 30 28 27 28 28 27 27 27 26 23 23 21 21 21 19 19 18 20 19 19 20 20 22 21 21 21 23 29 32 33 33
58 57 57 57 56 56 56 57 56 57 57 57 58 58 58 58 59 59 59 60 60 60 60 60 60 61 58 52 45 40 35 26 28 49 57 62 61 61 60 52 51 45 33 25 27 26 30 27 26 30 27 24 24 24 28 26 31 32 30 31 29 28 26 26 24 22 22 22 22 22 20 19 19 19 20 19 19 19 19 21 21 21 23 22 25 31 32 33
58 58 57 57 57 56 56 56 57 56 57 57 58 57 58 58 58 59 59 59 59 60 60 60 60 59 58 48 36 30 26 41 39 45 54 56 53 50 46 41 44 36 32 29 27 29 28 25 27 26 22 26 27 25 24 24 23 28 27 28 24 22 21 21 20 20 20 20 22 21 20 20 20 23 19 19 19 20 20 20 20 21 22 22 22 27 30 31
58 58 58 57 57 56 56 57 57 57 57 57 57 58 58 58 58 58 59 59 59 59 59 59 60 57 49 38 34 21 28 42 46 47 51 52 48 43 42 42 40 32 26 27 28 29 26 27 27 31 31 27 28 25 26 25 23 25 24 23 21 21 20 21 20 21 21 21 21 20 19 19 21 21 17 19 19 19 20 20 20 20 20 20 21 23 28 29
58 57 58 58 57 56 57 57 57 57 57 57 57 57 57 58 58 59 59 59 59 59 59 59 60 54 47 41 29 21 37 44 42 47 50 46 40 38 42 43 40 34 28 32 28 27 28 30 39 37 32 24 24 23 24 23 24 22 21 20 21 21 21 21 21 20 20 20 20 20 19 20 21 22 18 18 19 20 19 19 20 21 21 20 21 21 26 28
58 57 58 58 57 56 57 57 57 57 56 56 56 56 57 58 58 58 58 59 59 58 59 59 60 54 48 37 31 25 41 45 43 44 45 41 39 39 42 42 39 41 30 26 32 40 35 33 35 26 21 25 20 22 20 23 22 22 21 19 19 20 18 18 18 18 20 18 20 20 19 18 21 18 19 19 19 20 20 19 19 20 20 22 22 21 22 25
57 58 58 58 57 57 57 57 57 56 56 56 56 56 57 57 58 58 58 58 58 58 59 60 55 52 45 32 36 44 45 43 42 43 44 45 44 46 46 44 43 46 38 27 36 46 46 40 34 28 31 26 23 22 23 24 23 22 20 20 18 17 16 16 19 19 19 19 20 18 14 15 16 18 19 19 19 20 20 20 19 20 20 20 21 22 23 23
57 58 58 57 57 57 57 57 57 56 56 56 56 56 57 57 57 58 58 58 58 58 59 60 53 49 35 28 33 43 43 47 46 43 44 47 38 41 47 47 47 45 45 41 43 45 42 40 33 29 35 25 23 31 24 23 22 19 20 19 18 17 16 17 17 19 18 21 20 18 17 14 15 16 18 19 19 19 19 19 19 19 19 20 21 22 23 23
58 58 58 57 57 57 57 57 57 56 56 56 57 57 56 57 57 58 58 58 58 58 59 57 52 37 32 32 42 45 56 41 39 42 44 38 37 37 40 44 43 42 43 42 41 42 43 37 31 25 22 25 28 22 20 23 22 21 17 17 23 17 16 16 19 17 16 19 20 18 18 16 16 16 17 18 19 19 18 18 18 18 18 18 19 19 20 22
58 58 57 57 56 56 57 57 57 56 56 57 57 57 57 57 57 57 58 58 58 58 56 46 47 38 25 22 34 47 39 37 36 40 44 43 41 35 41 42 41 40 35 31 40 35 35 31 23 23 23 22 21 22 22 20 20 26 17 18 17 21 19 17 16 20 18 19 20 17 16 17 16 17 18 19 17 17 16 16 16 16 16 16 17 17 19 20
58 57 57 57 57 57 57 57 57 56 57 57 57 57 57 57 57 57 59 59 57 57 51 45 49 45 24 30 36 29 30 38 43 42 41 42 43 43 40 37 34 36 36 35 38 35 32 25 33 26 30 21 21 26 18 19 18 19 21 18 22 17 16 15 18 19 23 18 17 18 16 16 16 16 16 18 17 16 15 15 15 15 15 16 17 18 18 19
58 58 58 58 57 58 58 57 57 57 57 57 57 57 56 57 58 58 55 55 54 53 52 53 40 29 26 35 26 26 42 42 41 42 39 38 47 42 37 32 38 36 35 29 33 25 30 26 25 22 26 25 22 22 20 13 15 13 19 19 18 19 18 15 16 18 18 18 17 17 17 17 17 17 18 18 18 16 16 15 15 15 16 17 18 18 18 19
58 58 57 57 57 57 57 57 57 58 58 57 58 56 56 56 51 51 48 50 37 28 24 30 28 18 17 25 31 38 47 46 42 40 38 40 42 41 38 37 35 27 28 24 25 26 30 32 31 24 21 20 21 20 19 17 15 13 15 15 21 16 15 17 18 19 19 17 17 17 16 16 17 17 18 18 18 18 18 17 17 17 17 17 17 18 18 20
58 57 56 56 57 56 57 57 57 58 58 56 51 49 42 38 35 35 35 42 40 23 24 28 33 28 31 25 34 38 46 43 38 39 40 41 39 38 35 35 36 33 26 25 30 27 30 25 24 23 21 19 20 22 20 19 17 16 21 21 17 17 16 16 16 16 19 17 17 16 16 16 16 17 17 18 18 18 18 17 17 18 18 18 18 19 19 19
58 57 56 56 56 56 57 57 57 58 58 53 50 42 33 34 27 24 34 34 35 37 36 33 34 30 23 30 40 40 36 36 37 39 40 46 40 34 33 29 32 29 29 29 29 32 27 23 25 23 20 18 18 20 21 20 20 19 19 20 17 20 16 16 15 16 18 17 17 17 17 17 17 17 17 17 17 16 16 16 16 17 17 18 19 19 19 19
58 57 56 56 56 56 57 57 58 58 57 47 45 43 42 40 40 43 31 27 33 35 34 34 35 32 31 31 39 40 33 28 31 38 42 38 33 28 27 27 28 25 30 30 28 26 25 23 22 24 22 20 20 21 21 21 21 21 20 20 20 19 21 20 20 20 20 20 17 18 17 18 18 18 18 18 17 17 17 17 16 16 17 18 19 18 19 19
58 57 56 56 56 57 57 57 58 57 47 46 43 43 42 43 45 44 41 35 37 39 35 33 28 31 31 31 36 35 29 26 23 37 37 38 33 28 28 26 26 27 29 26 23 24 24 26 24 23 24 23 22 22 21 24 24 22 22 21 19 20 19 15 19 20 18 19 19 18 16 15 16 16 16 17 17 17 19 19 20 21 19 18 18 18 19 19
58 57 57 56 56 57 57 57 57 50 47 43 43 41 44 44 44 45 42 35 32 34 33 33 30 27 28 26 34 33 29 26 25 26 39 33 27 32 27 25 24 24 23 26 23 20 18 21 26 25 26 23 22 22 23 21 19 23 23 22 20 21 20 19 15 20 20 19 20 16 17 16 17 16 16 16 17 17 17 17 18 20 25 23 25 25 24 21
58 57 57 56 56 57 57 57 49 46 46 44 43 43 43 44 44 44 35 31 28 34 39 33 32 30 26 39 38 30 30 29 26 32 40 32 26 23 22 23 22 22 22 23 23 23 21 20 28 25 27 25 25 22 24 25 20 20 24 22 21 20 18 19 20 20 18 17 22 21 15 13 16 17 17 17 18 18 19 19 19 19 20 21 21 22 23 27
58 57 57 56 56 57 58 50 45 47 45 44 44 44 44 43 43 43 33 24 21 27 29 27 31 26 36 27 35 34 24 19 30 32 39 35 36 23 22 21 21 19 20 23 21 23 21 22 25 26 27 27 27 25 26 25 20 18 20 24 22 21 22 21 21 19 18 16 21 21 15 13 15 16 19 19 18 18 18 20 20 20 21 22 23 23 23 23
58 57 57 57 57 57 49 46 47 47 44 43 45 45 44 44 44 41 29 22 21 28 27 33 29 29 36 31 31 23 18 23 35 37 35 38 30 37 19 19 21 20 21 23 18 17 21 20 22 25 25 27 26 24 27 25 22 18 24 24 24 23 22 22 22 21 19 23 25 23 20 16 17 18 18 18 17 17 17 17 18 19 20 21 21 22 22 23
58 58 57 57 57 57 49 49 49 47 47 46 47 45 45 44 44 42 20 19 18 30 28 28 31 36 34 33 35 17 19 25 23 33 33 35 34 30 22 19 19 21 19 22 16 29 19 21 23 24 23 23 23 22 23 27 22 22 24 26 24 23 24 25 24 24 24 19 19 22 22 18 17 16 18 18 17 16 16 16 16 17 19 20 20 22 21 21
58 58 57 57 57 58 54 51 48 48 49 49 47 47 47 42 36 27 22 23 27 24 31 26 34 32 33 30 26 23 23 25 17 25 34 34 35 29 25 25 21 19 21 21 16 20 22 23 26 24 23 21 23 25 26 27 23 24 28 28 27 26 25 23 21 19 20 17 17 20 21 14 13 13 16 16 17 16 16 15 15 15 16 17 20 21 22 22
58 58 57 57 57 56 53 51 50 50 50 49 48 47 45 41 26 24 24 25 29 27 27 28 27 26 29 26 26 26 23 24 26 28 29 29 31 32 25 28 24 23 24 24 24 24 22 29 31 26 24 23 23 25 27 27 24 28 26 24 25 24 23 22 22 21 18 15 18 20 19 16 12 16 14 16 18 15 15 14 14 15 17 17 19 20 22 23
58 57 57 57 54 54 52 50 51 52 50 49 49 50 46 37 29 27 30 33 34 32 26 26 24 29 25 25 23 24 26 24 23 28 26 27 25 27 26 22 27 25 22 21 24 24 24 26 23 27 30 27 25 24 26 27 28 25 23 22 21 21 20 18 16 19 11 14 18 20 19 18 13 12 18 14 15 15 14 13 13 13 14 16 17 19 20 20
58 57 57 56 57 55 52 50 52 52 50 49 51 49 46 36 36 29 31 36 31 32 25 25 28 28 26 28 27 26 25 23 24 25 23 25 25 25 25 21 22 17 20 18 18 24 19 22 24 28 33 25 25 23 25 25 26 26 22 20 15 16 16 9 11 8 10 13 17 19 20 16 14 12 14 14 14 13 14 13 13 13 14 16 17 19 22 23
57 57 57 57 56 55 54 53 51 50 51 51 50 48 39 34 30 36 36 34 35 29 28 31 28 27 29 26 26 29 29 23 24 25 28 28 25 26 28 24 26 21 15 21 19 20 21 24 23 25 25 30 27 20 22 19 21 24 22 21 17 11 9 7 6 6 11 15 19 17 20 14 13 15 16 14 14 15 15 15 16 16 15 16 18 21 21 23
54 56 56 56 57 56 55 52 51 51 50 50 47 42 37 32 31 39 36 35 36 35 34 30 29 29 26 23 27 29 23 28 25 24 26 26 24 23 25 27 25 24 25 24 17 19 15 18 21 23 20 28 26 21 21 20 22 23 24 22 21 17 9 5 8 9 12 14 15 18 13 17 9 13 19 14 15 21 17 17 19 20 21 21 21 21 20 18
55 55 57 56 56 57 53 52 51 51 50 48 43 38 32 32 33 33 31 32 32 31 32 32 29 26 27 27 30 31 26 25 28 28 27 25 22 24 24 23 27 24 29 21 26 21 20 18 21 25 26 29 26 27 25 24 22 24 25 24 17 19 18 12 17 15 12 10 13 12 17 17 14 18 18 22 20 20 20 20 21 20 20 20 20 20 19 19
54 55 56 54 54 56 53 51 51 52 50 45 38 33 33 35 32 34 35 37 34 34 33 32 32 29 28 27 30 30 33 25 29 26 28 27 27 24 27 26 25 24 23 20 26 22 23 18 28 26 29 26 25 27 26 24 16 21 22 19 22 23 18 18 20 19 12 9 13 10 15 17 19 13 16 18 17 15 16 16 16 18 19 20 21 21 19 22
53 55 52 54 54 55 53 51 52 52 50 44 37 34 37 35 39 36 42 33 29 35 35 32 35 31 28 26 26 30 31 28 30 27 24 30 24 27 27 27 29 26 24 21 22 27 21 19 29 26 24 27 25 28 27 27 24 21 18 21 24 27 25 18 14 14 12 13 12 14 13 10 11 13 18 12 13 11 13 14 13 15 18 18 21 23 23 23
51 53 53 53 55 55 53 51 52 51 47 42 37 39 38 36 39 38 39 38 38 38 36 33 36 33 32 31 32 31 34 29 32 28 26 27 26 31 29 27 29 25 25 26 20 29 28 18 20 26 28 29 29 27 26 27 26 22 23 26 20 16 15 19 17 13 14 13 16 15 11 13 13 12 13 12 13 13 11 12 13 12 14 17 18 18 18 20
51 51 47 51 55 55 52 51 50 48 44 38 37 38 40 38 40 37 37 35 37 37 36 37 37 38 38 36 35 34 33 32 31 27 27 28 24 31 27 30 29 31 29 25 24 26 28 22 25 30 29 28 25 26 22 23 27 27 25 21 25 20 19 16 20 19 17 14 15 16 17 13 18 17 15 13 12 13 11 13 13 15 16 17 19 20 20 21
48 47 45 52 53 53 52 51 49 46 42 36 38 38 39 37 39 39 39 36 36 35 35 36 37 37 36 36 32 32 30 31 30 31 30 33 31 31 25 29 28 31 28 28 28 31 25 25 22 27 30 27 21 24 24 24 23 24 23 22 23 21 22 22 20 20 17 15 14 13 13 16 17 17 15 13 11 10 11 14 17 18 21 21 20 21 22 22
49 46 46 53 53 52 52 50 44 40 39 37 39 39 39 38 39 40 40 39 39 42 36 33 36 36 36 34 33 33 32 34 32 30 33 36 35 31 33 30 29 31 33 33 31 31 27 26 24 25 24 23 23 27 27 27 25 24 23 22 21 22 20 18 18 23 21 17 16 15 14 18 18 12 11 10 11 16 17 15 16 17 17 19 23 23 23 24
46 39 44 53 52 52 48 41 41 41 38 38 39 40 39 42 38 38 38 39 39 37 39 38 39 37 37 36 37 35 35 34 36 34 34 34 37 36 39 34 31 38 34 31 31 35 31 31 29 27 27 27 28 30 30 28 28 27 24 23 25 22 22 21 17 20 21 21 22 22 18 19 20 19 14 15 16 16 16 18 16 19 20 20 24 24 24 24
43 41 49 51 52 51 46 41 41 39 37 39 41 39 39 38 37 37 37 38 37 38 39 38 38 37 37 37 37 37 37 35 35 35 35 35 35 35 35 34 36 38 39 35 35 37 35 30 28 30 33 34 34 33 32 29 28 25 25 26 25 23 23 21 21 20 21 23 23 23 22 23 25 26 23 20 19 18 16 17 17 17 19 20 20 19 19 19
41 42 45 51 52 51 45 36 36 38 38 39 38 38 39 39 38 36 37 37 37 37 37 37 37 37 36 37 36 35 37 32 35 35 34 35 35 37 36 35 34 33 34 35 33 37 31 31 31 27 27 29 31 33 31 26 25 23 22 25 26 26 26 26 26 26 21 23 23 21 19 21 28 28 25 24 23 22 22 22 22 22 21 21 19 19 19 19
41 42 44 46 51 48 40 42 39 36 38 38 38 37 38 37 38 39 39 37 38 37 36 35 37 37 37 37 36 36 37 34 32 36 36 34 36 37 37 36 35 34 35 39 39 39 33 32 32 26 23 22 20 21 23 25 25 23 26 26 27 26 25 23 21 22 20 22 24 22 22 24 26 27 26 25 24 24 23 23 23 23 22 22 22 22 21 20
36 29 33 42 47 45 45 44 41 38 35 35 36 37 38 37 38 38 38 38 38 37 38 37 38 38 36 35 35 35 35 37 35 32 34 31 32 32 35 37 38 37 38 38 38 38 31 33 33 31 28 25 26 27 31 31 26 25 25 25 24 26 26 25 24 22 20 22 22 23 24 23 24 24 24 24 24 23 23 22 22 22 23 22 20 20 21 21
38 34 33 33 43 43 41 43 41 41 38 39 35 36 36 37 37 36 38 35 37 37 36 37 37 36 35 35 35 34 35 35 37 36 35 34 33 32 33 33 34 36 37 35 38 33 30 30 32 32 32 31 31 30 30 31 28 28 28 27 26 25 26 26 24 21 24 23 21 25 26 25 25 25 24 24 23 23 23 23 23 24 24 24 23 21 26 20
31 30 36 39 37 34 37 37 42 41 41 39 36 36 34 34 34 33 34 37 35 35 34 33 37 37 36 35 34 32 32 33 34 33 34 35 34 33 35 33 33 35 35 33 33 32 28 28 29 32 31 33 33 33 33 32 31 30 29 29 28 29 29 26 26 25 25 23 22 24 26 26 25 25 25 25 24 24 24 24 25 25 25 24 21 20 20 21
34 33 34 37 33 34 35 35 35 36 37 38 36 37 35 34 32 34 34 33 35 35 37 33 35 35 33 34 33 32 34 31 30 32 31 29 29 30 32 33 34 34 34 32 32 31 28 28 30 30 29 30 30 32 32 32 31 31 31 31 31 30 30 30 29 29 29 28 27 26 26 26 26 25 26 26 26 26 26 26 26 25 24 24 23 22 21 21
28 31 29 35 34 32 30 30 32 32 32 35 34 35 35 34 34 35 35 35 32 34 39 35 34 32 32 33 33 31 31 31 28 27 30 29 27 32 30 32 33 33 33 33 33 32 31 29 32 30 29 29 30 30 31 31 31 30 30 31 31 31 31 31 30 30 30 29 29 29 28 28 28 27 26 26 26 26 26 25 25 25 25 24 23 23 25 24
35 37 39 33 29 28 28 27 28 31 31 33 32 33 35 35 34 35 34 36 36 34 35 32 30 31 30 31 31 31 34 31 30 30 30 30 27 30 29 28 32 30 31 32 32 32 32 30 32 31 28 28 31 31 30 31 30 29 29 30 30 30 29 30 30 30 30 29 29 29 28 28 29 29 29 28 28 27 27 27 26 26 25 24 24 25 26 26
34 35 37 35 28 29 26 25 24 26 25 28 30 32 31 32 32 33 30 33 36 35 31 29 30 29 29 30 28 31 31 30 31 31 31 33 34 33 33 33 33 33 32 31 33 32 32 29 29 29 27 26 29 29 29 29 29 26 28 30 30 30 30 30 30 31 30 30 29 28 28 29 30 32 30 30 30 28 28 26 26 27 27 28 28 28 28 28